This is the latest recevied weather packets stored in our database for station/object N9BSW. If no packets are shown the sender has not sent any weather packets the latest 10 day(s).
| Time | Temp. | Humidity | Pressure | Rain* | Wind** | Luminosity | Snow |
|---|---|---|---|---|---|---|---|
| 1777823729 | 16.11° C | 35% | 1018.5 hPa | 0 mm | - | 784 W/m² | - |
| 1777823426 | 16.11° C | 38% | 1018.6 hPa | 0 mm | - | 747 W/m² | - |
| 1777823124 | 15.56° C | 41% | 1018.5 hPa | 0 mm | - | 727 W/m² | - |
| 1777822821 | 15° C | 41% | 1018.5 hPa | 0 mm | - | 714 W/m² | - |
| 1777822519 | 15.56° C | 40% | 1018.7 hPa | 0 mm | - | 704 W/m² | - |
| 1777822217 | 15° C | 39% | 1018.8 hPa | 0 mm | - | 696 W/m² | - |
| 1777821914 | 15° C | 39% | 1018.8 hPa | 0 mm | - | 725 W/m² | - |
| 1777821612 | 15° C | 40% | 1018.8 hPa | 0 mm | - | 635 W/m² | - |
| 1777821310 | 15° C | 40% | 1018.8 hPa | 0 mm | - | 665 W/m² | - |
| 1777821006 | 15° C | 41% | 1018.8 hPa | 0 mm | - | 644 W/m² | - |
| 1777820703 | 15° C | 41% | 1018.9 hPa | 0 mm | - | 629 W/m² | - |
| 1777820398 | 15° C | 40% | 1018.8 hPa | 0 mm | - | 618 W/m² | - |
| 1777820096 | 15° C | 41% | 1019 hPa | 0 mm | - | 604 W/m² | - |
| 1777819793 | 14.44° C | 43% | 1018.8 hPa | 0 mm | - | 589 W/m² | - |
| 1777819491 | 14.44° C | 43% | 1019 hPa | 0 mm | - | 575 W/m² | - |
| 1777819189 | 13.89° C | 43% | 1019 hPa | 0 mm | - | 561 W/m² | - |
| 1777818885 | 13.33° C | 44% | 1019.1 hPa | 0 mm | - | 547 W/m² | - |
| 1777818581 | 13.89° C | 43% | 1019.2 hPa | 0 mm | - | 533 W/m² | - |
| 1777818279 | 13.33° C | 44% | 1019.1 hPa | 0 mm | - | 516 W/m² | - |
| 1777817975 | 13.33° C | 43% | 1019.1 hPa | 0 mm | - | 501 W/m² | - |
| 1777817672 | 12.78° C | 43% | 1019.3 hPa | 0 mm | - | 485 W/m² | - |
| 1777817369 | 12.78° C | 44% | 1019.2 hPa | 0 mm | - | 470 W/m² | - |
| 1777817066 | 12.78° C | 45% | 1019.3 hPa | 0 mm | - | 452 W/m² | - |
| 1777816761 | 12.22° C | 44% | 1019.1 hPa | 0 mm | - | 437 W/m² | - |
| 1777816460 | 12.22° C | 44% | 1019.1 hPa | 0 mm | - | 421 W/m² | - |
* Rain latest hour (hover to see other rain measurements)
** Current wind speed in m/s (hover to see current wind gust speed)